Location: Gisborne
(38.6530°S, 178.0040°E)
Time: 10:48:58
(UTC+13:00)

COSMOS 2428 - Pass Details

Date: 24 January 2019
Orbit: 845 x 856 km, 71.0° (Epoch: 19 February)

Event Time Altitude Azimuth Distance (km) Brightness Sun altitude
Exits shadow 23:03:04 54° 65° (ENE) 1,040 2.8 -23.8°
Maximum altitude 23:03:16 54° 73° (ENE) 1,038 2.8 -23.8°
Drops below altitude 10° 23:08:53 10° 148° (SSE) 2,514 5.4 -24.5°
Sets 23:11:24 0° 152° (SSE) 3,459 6.3 -24.7°
